Location: Vihti�l�
(61.3833°N, 23.0667°E)
Time: 05:07:56
(UTC+00:00)

Cosmos 1437 Rocket - Pass Details

Date: 29 November 2020
Orbit: 504 x 563 km, 81.2° (Epoch: 22 January)

Event Time Altitude Azimuth Distance (km) Brightness Sun altitude
Exits shadow 04:35:18 32° 315° (NW) 905 3.4 -16.6°
Maximum altitude 04:36:41 49° 260° (W) 666 2.8 -16.4°
Drops below altitude 10° 04:40:20 10° 185° (S) 1,722 5.5 -16.0°
Sets 04:42:29 0° 180° (S) 2,601 6.5 -15.7°
